[[{"header":{"parameterUnit":"m.s-1","parameterCategory":1,"la1":30.2991,"la2":30.254,"lo1":-89.0895,"lo2":-89.0444,"dy":0.0017,"dx":0.0017,"nx":28,"ny":28,"refTime":"2025-09-15T09:00:00:Z","depth":0,"parameterNumber":2,"parameterNumberName":"U-component_of_WINDS"},"data":[0,0,0,0,0,0,0,0,0,0,0,0,0,0,0,0,0,0,0,0,0,0,0,0,0,0,0,0,0,0,0,0,0,0,0,0,0,0,0,0,0,0,0,0,0,0,0,0,0,0,0,0,0,0,0,0,0,0,-2.8301,-2.8302,0,-2.8352,-2.8353,-2.8353,-2.8311,-2.831,-2.8308,-2.8306,-2.836,-2.8363,-2.8367,0,0,0,0,0,0,0,0,0,0,0,0,0,-2.8171,-2.8174,-2.8301,-2.8302,-2.8302,-2.8352,-2.8353,-2.8354,-2.8312,-2.831,-2.8307,-2.8305,-2.8359,-2.8363,-2.8367,0,0,0,0,0,0,0,0,0,0,0,0,0,-2.8226,-2.8175,-2.8301,-2.8287,-2.8287,-2.8352,-2.8353,-2.8354,-2.8312,-2.831,-2.8307,-2.8304,-2.8358,-2.8363,-2.8367,-2.8449,0,0,-2.8382,-2.8384,0,0,0,0,0,0,0,0,-2.8223,-2.823,-2.8289,-2.8288,-2.8288,-2.8323,-2.8327,-2.8386,-2.8313,-2.8303,-2.8306,-2.8303,-2.835,-2.8355,-2.8371,-2.8452,-2.8454,-2.8382,-2.8385,-2.8387,-2.8388,0,0,0,0,0,0,0,-2.8219,-2.8228,-2.8321,-2.829,-2.8289,-2.828,-2.8285,-2.8338,-2.8341,-2.8303,-2.83,-2.8307,-2.8349,-2.8366,-2.8372,-2.8455,-2.8382,-2.8386,-2.8389,-2.8391,-2.8609,-2.8612,0,0,0,0,0,0,-2.8216,-2.8225,-2.832,-2.8323,-2.8248,-2.8285,-2.829,-2.8314,-2.834,-2.8341,-2.8309,-2.8305,-2.836,-2.8366,-2.8374,-2.8473,-2.8387,-2.8391,-2.8394,-2.8606,-2.861,-2.8613,0,0,0,0,0,0,-2.8213,-2.8225,-2.8318,-2.8273,-2.8284,-2.829,-2.8317,-2.8317,-2.8333,-2.8344,-2.8345,-2.8326,-2.8358,-2.8367,-2.8431,-2.8474,-2.8393,-2.8397,-2.8603,-2.8607,-2.8611,-2.867,0,0,0,0,0,0,-2.821,-2.8224,-2.8254,-2.8274,-2.8287,-2.8373,-2.832,-2.832,-2.8341,-2.8336,-2.836,-2.8362,-2.8357,-2.8425,-2.8436,-2.8479,-2.8401,-2.8599,-2.8605,-2.861,-2.8665,-2.8676,-2.8686,0,0,0,0,0,-2.8205,-2.8268,-2.8256,-2.8267,-2.8324,-2.8376,-2.8383,-2.8376,-2.8345,-2.8376,-2.8384,-2.8361,-2.8468,-2.8432,-2.8444,-2.8489,-2.8596,-2.8603,-2.861,-2.866,-2.8674,-2.8686,0,0,0,0,0,0,-2.8252,-2.827,-2.8257,-2.8328,-2.8351,-2.8368,-2.8407,-2.8391,-2.8423,-2.8417,-2.8407,-2.8413,-2.8481,-2.8491,-2.8451,-2.8571,-2.8527,-2.8537,-2.8561,-2.8575,-2.8586,-2.8581,-2.8405,0,0,0,0,0,-2.8271,-2.831,-2.8325,-2.8386,-2.8398,-2.8401,-2.8423,-2.8416,-2.8439,-2.8449,-2.8461,-2.8485,-2.8525,-2.8551,-2.8587,-2.8667,-2.8673,-2.8704,-2.8715,-2.8724,-2.8732,-2.8778,-2.8792,-2.8635,-2.8635,-2.8635,0,0,-2.831,-2.8325,-2.835,-2.8396,-2.8413,-2.8455,-2.8409,-2.8455,-2.8487,-2.8456,-2.8517,-2.8528,-2.8555,-2.8628,-2.866,-2.8639,-2.8777,-2.8733,-2.874,-2.8743,-2.8786,-2.8801,-2.8814,-2.864,-2.8639,-2.8638,0,0,-2.8402,-2.8417,-2.8471,-2.8489,-2.8516,-2.8518,-2.8531,-2.8552,-2.8558,-2.862,-2.8598,-2.8637,-2.8704,-2.8725,-2.8744,-2.8849,-2.883,-2.8862,-2.8918,-2.8962,-2.8975,-2.8986,-2.9024,-2.9038,-2.887,-2.887,-2.887,0,-2.8447,-2.8509,-2.8501,-2.8549,-2.8571,-2.8546,-2.8601,-2.862,-2.8657,-2.8674,-2.8649,-2.8735,-2.8751,-2.883,-2.8856,-2.8872,-2.8888,-2.8858,-2.8973,-2.8984,-2.8994,-2.9031,-2.9045,-2.8874,-2.8873,-2.8873,-2.8873,0,-2.8564,-2.8607,-2.8648,-2.8685,-2.8712,-2.8764,-2.8765,-2.8793,-2.8785,-2.8791,-2.8856,-2.8875,-2.8916,-2.8935,-2.8926,-2.9013,-2.8999,-2.8974,-2.893,-2.9013,-2.9047,-2.9061,-2.8879,-2.8878,-2.8877,-2.8876,0,0,-2.8684,-2.8718,-2.8733,-2.8751,-2.878,-2.8814,-2.8867,-2.8907,-2.8932,-2.896,-2.9005,-2.9065,-2.9043,-2.9065,-2.906,-2.9099,-2.9183,-2.907,-2.907,-2.909,-2.9282,-2.9299,-2.9316,-2.9171,-2.9174,-2.9176,-2.9279,0,-2.8777,-2.8867,-2.8863,-2.8948,-2.8989,-2.8968,-2.9014,-2.9038,-2.9046,-2.9083,-2.9092,-2.9135,-2.9102,-2.9116,-2.9154,-2.9164,-2.9221,-2.9157,-2.9214,-2.9216,-2.9206,-2.9333,-2.9352,-2.9448,-2.9293,-2.9295,-2.9297,0,-2.8898,-2.893,-2.9019,-2.9045,-2.9062,-2.9103,-2.9142,-2.9178,-2.9206,-2.9209,-2.9236,-2.9225,-2.9281,-2.9236,-2.9313,-2.927,-2.9294,-2.9303,-2.9307,-2.9311,-2.926,-2.9341,-2.9478,-2.9493,-2.9317,-2.9316,-2.9314,0,-2.8977,-2.9044,-2.9106,-2.9122,-2.9153,-2.9183,-2.9197,-2.9223,-2.9249,-2.9283,-2.93,-2.9341,-2.9363,-2.9396,-2.9397,-2.9364,-2.9476,-2.9431,-2.9481,-2.9481,-2.9504,-2.9502,-2.9647,-2.952,-2.952,-2.952,-2.952,0,-2.9082,-2.9137,-2.9142,-2.918,-2.9243,-2.9239,-2.9301,-2.9314,-2.9337,-2.9379,-2.9364,-2.9403,-2.9403,-2.9445,-2.9447,-2.9512,-2.9522,-2.9527,-2.9527,-2.9528,-2.9527,-2.9542,-2.9535,-2.9524,-2.9523,-2.9522,-2.9521,0,-2.918,-2.9185,-2.9252,-2.9277,-2.9285,-2.933,-2.9352,-2.939,-2.9398,-2.9451,-2.9463,-2.9475,-2.9523,-2.9529,-2.9585,-2.9587,-2.9665,-2.9658,-2.9655,-2.9654,-2.9703,-2.9699,-2.9862,-2.9884,-2.9743,-2.9745,-2.9746,0,-2.9246,-2.9288,-2.9318,-2.9345,-2.9362,-2.9405,-2.9431,-2.9431,-2.9459,-2.9497,-2.9531,-2.9577,-2.9614,-2.9693,-2.9708,-2.9752,-2.9745,-2.98,-2.9751,-2.9752,-2.9746,-2.9744,-2.9749,-2.9808,-2.981,-2.9811,-2.9812,0,-2.9362,-2.9364,-2.9402,-2.9443,-2.9475,-2.9507,-2.9537,-2.956,-2.9564,-2.9597,-2.9646,-2.9675,-2.9734,-2.9781,-2.9825,-2.9842,-2.9829,-2.9828,-2.9842,-2.9843,-2.984,-2.9843,-2.968,-2.9824,-2.9822,-2.9822,-2.9821,-2.9821,-2.9446,-2.9484,-2.9512,-2.9556,-2.9579,-2.9608,-2.9645,-2.9658,-2.9699,-2.9746,-2.9744,-2.9799,-2.983,-2.9887,-2.9908,-2.9952,-2.9934,-2.9954,-2.9959,-2.9963,-2.9969,-2.9834,-2.996,-2.9959,-2.9959,-2.9959,-2.9959,0,-2.9562,-2.958,-2.9621,-2.9664,-2.97,-2.9685,-2.9718,-2.9749,-2.9797,-2.9827,-2.9864,-2.9922,-2.9969,-2.9989,-3.0036,-3.0067,-3.0063,-3.008,-3.0077,-3.0081,-2.9982,-2.9965,-3.0083,-3.0083,-3.0083,-3.0083,-3.0083,-3.0083,-2.9627,-2.969,-2.9695,-2.9771,-2.9789,-2.9841,-2.9862,-2.989,-2.9914,-2.9979,-3.0018,-3.0031,-3.0057,-3.0106,-3.015,-3.0154,-3.0172,-3.0192,-3.0194,-3.0101,-3.0088,-3.0076,-3.006,-3.0196,-3.0196,-3.029,-3.0291,-3.0292]},{"header":{"parameterUnit":"m.s-1","parameterCategory":1,"la1":30.2991,"la2":30.254,"lo1":-89.0895,"lo2":-89.0444,"dy":0.0017,"dx":0.0017,"nx":28,"ny":28,"refTime":"2025-09-15T09:00:00:Z","depth":0,"parameterNumber":3,"parameterNumberName":"V-component_of_WINDS"},"data":[0,0,0,0,0,0,0,0,0,0,0,0,0,0,0,0,0,0,0,0,0,0,0,0,0,0,0,0,0,0,0,0,0,0,0,0,0,0,0,0,0,0,0,0,0,0,0,0,0,0,0,0,0,0,0,0,0,0,3.6883,3.6884,0,3.6923,3.6923,3.6923,3.6974,3.6975,3.6975,3.6976,3.7013,3.7013,3.7013,0,0,0,0,0,0,0,0,0,0,0,0,0,3.6848,3.6848,3.6883,3.6884,3.6884,3.6922,3.6923,3.6923,3.6974,3.6975,3.6976,3.6977,3.7013,3.7013,3.7013,0,0,0,0,0,0,0,0,0,0,0,0,0,3.6872,3.6848,3.6883,3.6914,3.6917,3.6922,3.6923,3.6924,3.6973,3.6975,3.6976,3.6977,3.7013,3.7013,3.7013,3.699,0,0,3.7014,3.7014,0,0,0,0,0,0,0,0,3.6871,3.6874,3.6909,3.6912,3.6915,3.6945,3.6924,3.6946,3.6973,3.6952,3.6976,3.6978,3.6989,3.6991,3.6996,3.6992,3.6994,3.7014,3.7014,3.7015,3.7015,0,0,0,0,0,0,0,3.6869,3.6872,3.6899,3.6909,3.6913,3.6924,3.6929,3.6928,3.6963,3.6954,3.6958,3.6962,3.6991,3.6995,3.6997,3.6994,3.7014,3.7015,3.7015,3.7015,3.6972,3.6971,0,0,0,0,0,0,3.6863,3.6871,3.6897,3.69,3.6896,3.6924,3.693,3.6934,3.6963,3.6969,3.6961,3.6964,3.6994,3.6997,3.6998,3.6972,3.7015,3.7015,3.7015,3.6974,3.6972,3.6971,0,0,0,0,0,0,3.6862,3.6865,3.6896,3.6886,3.6891,3.6923,3.6928,3.6934,3.6939,3.6968,3.6974,3.6959,3.6995,3.6998,3.6992,3.6974,3.7015,3.7015,3.6975,3.6973,3.6971,3.692,0,0,0,0,0,0,3.6861,3.6865,3.6857,3.6886,3.6891,3.6889,3.6927,3.6934,3.6939,3.6944,3.6968,3.6974,3.6996,3.6991,3.6992,3.6975,3.7016,3.6977,3.6974,3.6972,3.6923,3.6917,3.6911,0,0,0,0,0,3.686,3.6841,3.6856,3.6859,3.6883,3.6888,3.6891,3.6919,3.6938,3.693,3.6949,3.6973,3.6977,3.699,3.6992,3.6975,3.6978,3.6975,3.6972,3.6926,3.6918,3.6911,0,0,0,0,0,0,3.6808,3.6845,3.6863,3.6853,3.6867,3.6897,3.6888,3.691,3.6918,3.6922,3.6955,3.696,3.6949,3.6962,3.6977,3.6953,3.6981,3.6978,3.6945,3.6938,3.6931,3.6927,3.7016,0,0,0,0,0,3.6795,3.6798,3.683,3.6818,3.6824,3.6855,3.6858,3.6879,3.6894,3.69,3.6919,3.6932,3.6936,3.6938,3.6944,3.6926,3.6931,3.6915,3.6909,3.6904,3.69,3.689,3.6882,3.6961,3.6961,3.6961,0,0,3.6769,3.679,3.6789,3.6808,3.6822,3.6822,3.6859,3.6859,3.6859,3.69,3.6895,3.6909,3.6926,3.6914,3.6909,3.6924,3.688,3.69,3.6895,3.6895,3.6886,3.6879,3.6872,3.6959,3.6959,3.696,0,0,3.6721,3.6738,3.6729,3.6742,3.6763,3.6783,3.6781,3.6808,3.6819,3.6815,3.6845,3.6846,3.6853,3.6863,3.6869,3.6825,3.6847,3.6826,3.6792,3.6782,3.6776,3.677,3.6752,3.6746,3.6823,3.6823,3.6823,0,3.6685,3.6689,3.6721,3.6719,3.6725,3.6764,3.6754,3.6765,3.6785,3.6788,3.6805,3.6814,3.6828,3.6818,3.6807,3.6812,3.6809,3.6822,3.6774,3.6769,3.6765,3.6748,3.6741,3.682,3.6821,3.6821,3.6821,0,3.6643,3.6645,3.6635,3.6655,3.666,3.6654,3.6684,3.6686,3.6706,3.6724,3.6719,3.6738,3.6747,3.6747,3.6766,3.6739,3.6747,3.6768,3.6796,3.6754,3.6738,3.6732,3.6816,3.6817,3.6818,3.6819,0,0,3.6561,3.66,3.6596,3.6605,3.6631,3.6632,3.6627,3.6637,3.6637,3.665,3.6645,3.6651,3.667,3.6677,3.6698,3.669,3.6651,3.6712,3.6713,3.6698,3.662,3.6602,3.6594,3.6667,3.6666,3.6665,3.6618,0,3.6517,3.6511,3.654,3.6526,3.6527,3.6564,3.656,3.6574,3.6591,3.6593,3.6612,3.6614,3.6642,3.6646,3.6639,3.6657,3.6636,3.6662,3.666,3.666,3.6652,3.6587,3.6567,3.6522,3.6612,3.6611,3.6611,0,3.6463,3.6474,3.646,3.6486,3.6487,3.6483,3.6494,3.6497,3.6513,3.6526,3.6534,3.6559,3.6554,3.6582,3.6575,3.6592,3.6594,3.6603,3.6602,3.66,3.6631,3.6581,3.6508,3.65,3.6602,3.6603,3.6603,0,3.6402,3.6414,3.6407,3.6413,3.6444,3.644,3.6452,3.647,3.6474,3.6484,3.6486,3.6495,3.6499,3.6505,3.653,3.6549,3.6519,3.655,3.6528,3.6527,3.6518,3.6517,3.6441,3.6523,3.6523,3.6523,3.6523,0,3.6347,3.6336,3.6379,3.6375,3.6364,3.6397,3.6385,3.6401,3.6417,3.6414,3.6448,3.6445,3.648,3.6481,3.6501,3.649,3.6493,3.6501,3.6506,3.6497,3.6495,3.6496,3.6499,3.6522,3.6522,3.6522,3.6523,0,3.6276,3.6305,3.6299,3.6329,3.6336,3.6326,3.6351,3.6347,3.6367,3.6364,3.6365,3.6395,3.6397,3.6424,3.6432,3.6446,3.6427,3.6439,3.6421,3.6424,3.6399,3.64,3.6318,3.6308,3.6399,3.6398,3.6397,0,3.6238,3.6231,3.626,3.6261,3.6272,3.6275,3.6279,3.6312,3.6315,3.6334,3.6327,3.6332,3.6338,3.634,3.6361,3.6367,3.6378,3.635,3.6379,3.6369,3.6375,3.6374,3.6372,3.6342,3.6341,3.634,3.6339,0,3.6166,3.6181,3.6187,3.6197,3.6202,3.6211,3.6223,3.6222,3.6258,3.626,3.6263,3.6268,3.6276,3.628,3.629,3.6301,3.6325,3.633,3.6325,3.6314,3.6302,3.6306,3.6401,3.6331,3.6332,3.6333,3.6333,3.6333,3.6108,3.6103,3.6123,3.6128,3.6141,3.6151,3.6148,3.6168,3.6172,3.6182,3.6201,3.6201,3.6217,3.6233,3.6242,3.6242,3.6256,3.6249,3.6247,3.6244,3.6237,3.6305,3.6244,3.6244,3.6244,3.6245,3.6245,0,3.6036,3.6051,3.6056,3.6071,3.6075,3.61,3.6114,3.6114,3.6114,3.6128,3.6133,3.6136,3.614,3.6163,3.6169,3.6164,3.6175,3.6164,3.6163,3.6165,3.6225,3.6228,3.6155,3.6155,3.6155,3.6155,3.6155,3.6155,3.5999,3.5991,3.6008,3.6006,3.602,3.6021,3.6027,3.6036,3.6047,3.6049,3.6053,3.6068,3.6085,3.6093,3.6097,3.6103,3.6103,3.6088,3.6097,3.6153,3.6161,3.6169,3.6172,3.6088,3.6088,3.6037,3.6036,3.6036]}]]